QPF
0.00 0.00 0.00 0.00 0.00 0.00 0.00 0.00 0.00 0.00 0.00 0.00 0.00 0.00 0.00 0.00 0.00 0.00 0.00 0.00 0.00 0.00 0.00 0.00 0.00 0.00 0.01 0.02 0.04 0.04 0.00 0.00 0.00 0.00 0.00 0.00 0.00 0.00 0.00 0.00 0.00 0.00 0.00 0.00 0.00 0.00 0.00 0.00 0.00
0.00 0.00 0.00 0.00 0.00 0.00 0.00 0.00 0.00 0.00 0.00 0.00 0.00 0.00 0.00 0.00 0.00 0.00 0.00 0.00 0.00 0.00 0.00 0.00 0.00 0.00 0.00 0.02 0.04 0.02 0.00 0.00 0.00 0.00 0.00 0.00 0.00 0.00 0.00 0.00 0.00 0.00 0.00 0.00 0.00 0.00 0.00 0.00 0.00
0.00 0.00 0.00 0.00 0.00 0.00 0.00 0.00 0.00 0.00 0.00 0.00 0.00 0.00 0.00 0.00 0.00 0.00 0.00 0.00 0.00 0.00 0.00 0.00 0.00 0.02 0.02 0.03 0.02 0.01 0.00 0.00 0.00 0.00 0.00 0.00 0.00 0.00 0.00 0.00 0.00 0.00 0.00 0.00 0.00 0.00 0.00 0.00 0.00
0.00 0.00 0.00 0.00 0.00 0.00 0.00 0.00 0.00 0.00 0.00 0.00 0.00 0.00 0.00 0.00 0.00 0.00 0.00 0.00 0.00 0.00 0.00 0.00 0.01 0.03 0.03 0.01 0.01 0.00 0.00 0.00 0.00 0.00 0.00 0.00 0.00 0.00 0.00 0.00 0.00 0.00 0.00 0.00 0.00 0.00 0.00 0.00 0.00
0.00 0.00 0.00 0.00 0.00 0.00 0.00 0.00 0.00 0.00 0.00 0.00 0.00 0.00 0.00 0.00 0.00 0.00 0.00 0.00 0.00 0.00 0.00 0.00 0.00 0.03 0.03 0.00 0.01 0.01 0.01 0.00 0.00 0.00 0.00 0.00 0.00 0.00 0.00 0.00 0.00 0.00 0.00 0.00 0.00 0.00 0.00 0.00 0.00
0.00 0.00 0.00 0.00 0.00 0.00 0.00 0.00 0.00 0.00 0.00 0.00 0.00 0.00 0.00 0.00 0.00 0.00 0.00 0.00 0.00 0.00 0.00 0.00 0.00 0.00 0.02 0.03 0.02 0.01 0.02 0.01 0.01 0.00 0.00 0.00 0.00 0.00 0.00 0.00 0.00 0.00 0.00 0.00 0.00 0.00 0.00 0.00 0.00
0.00 0.00 0.00 0.00 0.00 0.00 0.00 0.00 0.00 0.00 0.00 0.00 0.00 0.00 0.00 0.00 0.00 0.00 0.00 0.00 0.00 0.00 0.00 0.00 0.00 0.00 0.00 0.00 0.00 0.00 0.01 0.01 0.00 0.00 0.00 0.00 0.00 0.00 0.00 0.00 0.00 0.00 0.00 0.00 0.00 0.00 0.00 0.00 0.00
0.00 0.00 0.00 0.00 0.00 0.00 0.00 0.00 0.00 0.00 0.00 0.00 0.00 0.00 0.00 0.00 0.00 0.00 0.00 0.00 0.00 0.00 0.00 0.00 0.00 0.00 0.00 0.00 0.00 0.00 0.00 0.00 0.00 0.00 0.00 0.00 0.00 0.00 0.00 0.00 0.00 0.00 0.00 0.00 0.00 0.00 0.00 0.00 0.00
0.00 0.00 0.00 0.00 0.00 0.00 0.00 0.00 0.00 0.00 0.00 0.00 0.00 0.00 0.00 0.00 0.00 0.00 0.00 0.00 0.00 0.00 0.00 0.00 0.00 0.00 0.01 0.00 0.00 0.00 0.00 0.00 0.00 0.00 0.00 0.00 0.00 0.00 0.00 0.00 0.00 0.00 0.00 0.00 0.00 0.00 0.00 0.00 0.00
0.00 0.00 0.00 0.00 0.00 0.00 0.00 0.00 0.00 0.00 0.00 0.00 0.00 0.00 0.00 0.00 0.00 0.00 0.00 0.00 0.00 0.00 0.00 0.00 0.00 0.00 0.01 0.01 0.01 0.01 0.01 0.01 0.01 0.01 0.00 0.00 0.00 0.00 0.00 0.00 0.00 0.00 0.00 0.00 0.00 0.00 0.00 0.00 0.00
0.00 0.00 0.00 0.00 0.00 0.00 0.00 0.00 0.00 0.00 0.00 0.00 0.00 0.00 0.00 0.00 0.00 0.00 0.00 0.00 0.00 0.00 0.00 0.00 0.00 0.00 0.00 0.00 0.01 0.02 0.02 0.01 0.01 0.01 0.01 0.00 0.00 0.00 0.00 0.00 0.00 0.00 0.00 0.00 0.00 0.00 0.00 0.00 0.00
0.00 0.00 0.00 0.00 0.00 0.00 0.00 0.00 0.00 0.00 0.00 0.00 0.00 0.00 0.00 0.00 0.00 0.00 0.00 0.00 0.00 0.00 0.00 0.00 0.00 0.00 0.00 0.00 0.00 0.01 0.02 0.02 0.01 0.01 0.01 0.01 0.00 0.00 0.00 0.00 0.00 0.00 0.00 0.00 0.00 0.00 0.00 0.00 0.00
0.00 0.00 0.00 0.00 0.00 0.00 0.00 0.00 0.00 0.00 0.00 0.00 0.00 0.00 0.00 0.00 0.00 0.00 0.00 0.00 0.00 0.00 0.00 0.00 0.00 0.00 0.00 0.00 0.00 0.00 0.02 0.03 0.01 0.02 0.03 0.02 0.01 0.00 0.00 0.00 0.00 0.00 0.00 0.00 0.00 0.00 0.00 0.00 0.00
0.00 0.00 0.00 0.00 0.00 0.00 0.00 0.00 0.00 0.00 0.00 0.00 0.00 0.00 0.00 0.00 0.00 0.00 0.00 0.00 0.00 0.00 0.00 0.00 0.00 0.00 0.00 0.00 0.00 0.00 0.00 0.00 0.01 0.02 0.03 0.01 0.02 0.01 0.00 0.00 0.00 0.00 0.00 0.00 0.00 0.00 0.00 0.00 0.00
0.00 0.00 0.00 0.00 0.00 0.00 0.00 0.00 0.00 0.00 0.00 0.00 0.00 0.00 0.00 0.00 0.00 0.00 0.00 0.00 0.00 0.00 0.00 0.00 0.00 0.00 0.00 0.00 0.00 0.00 0.00 0.00 0.00 0.00 0.01 0.01 0.01 0.02 0.00 0.00 0.00 0.00 0.00 0.00 0.00 0.00 0.00 0.00 0.00
0.00 0.00 0.00 0.00 0.00 0.00 0.00 0.00 0.00 0.00 0.00 0.00 0.00 0.00 0.00 0.00 0.00 0.00 0.00 0.00 0.00 0.00 0.00 0.00 0.00 0.00 0.00 0.00 0.00 0.00 0.00 0.00 0.00 0.00 0.00 0.00 0.00 0.01 0.00 0.00 0.00 0.00 0.00 0.00 0.00 0.00 0.00 0.00 0.00
0.00 0.00 0.00 0.00 0.00 0.00 0.00 0.00 0.00 0.00 0.00 0.00 0.00 0.00 0.00 0.00 0.00 0.00 0.00 0.00 0.00 0.00 0.00 0.00 0.00 0.00 0.00 0.00 0.00 0.00 0.00 0.00 0.00 0.00 0.00 0.00 0.00 0.00 0.00 0.00 0.00 0.00 0.00 0.00 0.00 0.00 0.00 0.00 0.00
0.00 0.00 0.00 0.00 0.00 0.00 0.00 0.00 0.00 0.00 0.00 0.00 0.00 0.00 0.00 0.00 0.00 0.00 0.00 0.00 0.00 0.00 0.00 0.00 0.00 0.00 0.00 0.00 0.00 0.00 0.00 0.00 0.00 0.00 0.00 0.00 0.00 0.00 0.00 0.00 0.00 0.00 0.00 0.00 0.00 0.00 0.00 0.00 0.00
0.00 0.00 0.00 0.00 0.00 0.00 0.00 0.00 0.00 0.00 0.00 0.00 0.00 0.00 0.00 0.00 0.00 0.00 0.00 0.00 0.00 0.00 0.00 0.00 0.00 0.00 0.00 0.00 0.00 0.00 0.00 0.00 0.00 0.00 0.00 0.00 0.00 0.00 0.00 0.00 0.00 0.00 0.00 0.00 0.00 0.00 0.00 0.00 0.00
0.00 0.00 0.00 0.00 0.00 0.00 0.00 0.00 0.00 0.00 0.00 0.00 0.00 0.00 0.00 0.00 0.00 0.00 0.00 0.00 0.00 0.00 0.00 0.00 0.00 0.00 0.00 0.00 0.00 0.00 0.00 0.00 0.00 0.00 0.00 0.00 0.00 0.00 0.00 0.00 0.00 0.00 0.00 0.00 0.00 0.00 0.00 0.00 0.00
0.00 0.00 0.00 0.00 0.00 0.00 0.00 0.00 0.00 0.00 0.00 0.00 0.00 0.00 0.00 0.00 0.00 0.00 0.00 0.00 0.00 0.00 0.00 0.00 0.00 0.00 0.00 0.00 0.00 0.00 0.00 0.00 0.00 0.00 0.00 0.00 0.00 0.00 0.00 0.00 0.00 0.00 0.00 0.00 0.00 0.00 0.00 0.00 0.00
0.00 0.00 0.00 0.00 0.00 0.00 0.00 0.00 0.00 0.00 0.00 0.00 0.00 0.00 0.00 0.00 0.00 0.00 0.00 0.00 0.00 0.00 0.00 0.00 0.00 0.00 0.00 0.00 0.00 0.00 0.00 0.00 0.00 0.00 0.00 0.00 0.00 0.00 0.00 0.00 0.00 0.00 0.00 0.00 0.00 0.00 0.00 0.00 0.00
0.00 0.00 0.00 0.00 0.00 0.00 0.00 0.00 0.00 0.00 0.00 0.00 0.00 0.00 0.00 0.00 0.00 0.00 0.00 0.00 0.00 0.00 0.00 0.00 0.00 0.00 0.00 0.00 0.00 0.00 0.00 0.00 0.00 0.00 0.00 0.00 0.00 0.00 0.00 0.00 0.00 0.00 0.00 0.00 0.00 0.00 0.00 0.00 0.00
0.00 0.00 0.00 0.00 0.00 0.00 0.00 0.00 0.00 0.00 0.00 0.00 0.00 0.00 0.00 0.00 0.00 0.00 0.00 0.00 0.00 0.00 0.00 0.00 0.00 0.00 0.00 0.00 0.00 0.00 0.00 0.00 0.00 0.00 0.00 0.00 0.00 0.00 0.00 0.00 0.00 0.00 0.00 0.00 0.00 0.00 0.00 0.00 0.00
0.00 0.00 0.00 0.00 0.00 0.00 0.00 0.00 0.00 0.00 0.00 0.00 0.00 0.00 0.00 0.00 0.00 0.00 0.00 0.00 0.00 0.00 0.00 0.00 0.00 0.00 0.00 0.00 0.00 0.00 0.00 0.00 0.00 0.00 0.00 0.00 0.00 0.00 0.00 0.00 0.00 0.00 0.00 0.00 0.00 0.00 0.00 0.00 0.00
0.00 0.00 0.00 0.00 0.00 0.00 0.00 0.00 0.00 0.00 0.00 0.00 0.00 0.00 0.00 0.00 0.00 0.00 0.00 0.00 0.00 0.00 0.00 0.00 0.00 0.00 0.00 0.00 0.00 0.00 0.00 0.00 0.00 0.00 0.00 0.00 0.00 0.00 0.00 0.00 0.00 0.00 0.00 0.00 0.00 0.00 0.00 0.00 0.00
0.00 0.00 0.00 0.00 0.00 0.00 0.00 0.00 0.00 0.00 0.00 0.00 0.00 0.00 0.00 0.00 0.00 0.00 0.00 0.00 0.00 0.00 0.00 0.00 0.00 0.00 0.00 0.00 0.00 0.00 0.00 0.00 0.00 0.00 0.00 0.00 0.00 0.00 0.00 0.00 0.00 0.00 0.00 0.00 0.00 0.00 0.00 0.00 0.00
0.00 0.00 0.00 0.00 0.00 0.00 0.00 0.00 0.00 0.00 0.00 0.00 0.00 0.00 0.00 0.00 0.00 0.00 0.00 0.00 0.00 0.00 0.00 0.00 0.00 0.00 0.00 0.00 0.00 0.00 0.00 0.00 0.00 0.00 0.00 0.00 0.00 0.00 0.00 0.00 0.00 0.00 0.00 0.00 0.00 0.00 0.00 0.00 0.00
0.00 0.00 0.00 0.00 0.00 0.00 0.00 0.00 0.00 0.00 0.00 0.00 0.00 0.00 0.00 0.00 0.00 0.00 0.00 0.00 0.00 0.00 0.00 0.00 0.00 0.00 0.00 0.00 0.00 0.00 0.00 0.00 0.00 0.00 0.00 0.00 0.00 0.00 0.00 0.00 0.00 0.00 0.00 0.00 0.00 0.00 0.00 0.00 0.00
0.00 0.00 0.00 0.00 0.00 0.00 0.00 0.00 0.00 0.00 0.00 0.00 0.00 0.00 0.00 0.00 0.00 0.00 0.00 0.00 0.00 0.00 0.00 0.00 0.00 0.00 0.00 0.00 0.00 0.00 0.00 0.00 0.00 0.00 0.00 0.00 0.00 0.00 0.00 0.00 0.00 0.00 0.00 0.00 0.00 0.00 0.00 0.00 0.00
MSLP
1015.71 1015.72 1015.77 1016.03 1018.05 1019.29 1019.86 1020.01 1019.83 1020.01 1020.19 1020.22 1020.33 1020.54 1020.65 1020.85 1020.81 1021.27 1020.74 1020.87 1020.82 1020.92 1021.20 1021.36 1021.52 1021.76 1022.07 1022.29 1022.54 1022.67 1022.76 1022.76 1022.97 1023.21 1023.28 1023.25 1023.25 1023.50 1023.48 1023.46 1023.54 1023.45 1023.54 1023.60 1023.61 1023.52 1023.67 1023.72 1023.81
1015.76 1015.76 1016.10 1017.35 1018.70 1019.89 1020.20 1020.06 1019.94 1019.90 1020.11 1020.33 1020.50 1020.67 1020.79 1020.97 1020.76 1020.78 1020.78 1020.86 1020.82 1021.01 1021.23 1021.46 1021.64 1021.89 1022.17 1022.53 1022.68 1022.73 1022.94 1023.09 1023.35 1023.40 1023.55 1023.52 1023.74 1023.85 1023.82 1023.77 1023.93 1023.97 1023.98 1023.99 1024.02 1023.97 1024.14 1024.23 1024.44
1015.77 1015.90 1017.12 1018.39 1019.69 1020.01 1019.93 1019.81 1019.85 1020.21 1020.33 1020.43 1020.69 1020.83 1020.89 1020.93 1020.79 1020.65 1020.57 1020.61 1020.93 1021.17 1021.40 1021.68 1021.86 1022.05 1022.33 1022.57 1022.81 1022.88 1023.19 1023.35 1023.53 1023.71 1023.85 1023.88 1024.07 1024.18 1024.19 1024.32 1024.29 1024.41 1024.34 1024.39 1024.35 1024.49 1024.66 1024.80 1024.88
1016.21 1016.71 1018.69 1018.98 1019.65 1019.56 1019.58 1019.56 1019.88 1020.46 1020.43 1020.44 1020.52 1020.97 1021.10 1020.90 1020.74 1020.71 1020.62 1020.60 1020.87 1021.24 1021.49 1021.79 1021.92 1022.11 1022.38 1022.61 1022.83 1023.03 1023.24 1023.48 1023.66 1023.77 1024.00 1024.07 1024.33 1024.49 1024.72 1024.70 1024.67 1024.80 1024.94 1024.84 1025.05 1025.08 1025.18 1025.46 1025.50
1016.86 1017.84 1019.00 1019.57 1019.69 1019.47 1019.46 1019.49 1019.85 1020.31 1020.36 1020.53 1020.53 1020.86 1021.06 1020.98 1020.92 1020.81 1020.71 1020.70 1020.88 1021.32 1021.57 1021.78 1021.96 1022.21 1022.46 1022.65 1022.93 1023.15 1023.35 1023.61 1023.84 1023.90 1024.27 1024.48 1024.72 1024.92 1025.07 1024.98 1025.11 1025.35 1025.30 1025.39 1025.61 1025.63 1025.86 1026.09 1026.22
1017.61 1018.61 1019.62 1019.98 1019.69 1019.37 1019.28 1019.40 1019.69 1020.10 1020.28 1020.56 1020.71 1020.99 1021.03 1020.93 1021.00 1020.97 1020.89 1020.93 1020.98 1021.23 1021.64 1021.87 1022.09 1022.26 1022.43 1022.73 1023.02 1023.21 1023.52 1023.75 1023.98 1024.23 1024.51 1024.88 1024.98 1024.98 1025.19 1025.34 1025.43 1025.73 1025.71 1025.94 1026.07 1026.19 1026.48 1026.59 1026.89
1017.94 1019.21 1019.94 1019.97 1019.76 1019.48 1019.16 1019.37 1019.66 1019.84 1020.18 1020.29 1020.38 1020.96 1021.00 1021.02 1021.08 1021.17 1021.18 1021.13 1021.20 1021.43 1021.61 1021.84 1022.06 1022.29 1022.54 1022.79 1023.06 1023.29 1023.61 1023.83 1024.08 1024.44 1024.73 1024.98 1025.02 1025.22 1025.52 1025.76 1025.86 1025.92 1026.11 1026.26 1026.40 1026.77 1026.87 1027.13 1027.31
1018.31 1019.50 1020.25 1020.11 1020.01 1019.29 1019.04 1019.31 1019.19 1019.59 1019.93 1020.23 1020.31 1020.58 1020.79 1020.66 1021.08 1021.32 1021.50 1021.56 1021.64 1021.64 1021.75 1021.92 1022.15 1022.32 1022.53 1022.82 1023.11 1023.36 1023.65 1023.98 1024.29 1024.57 1024.86 1025.06 1025.30 1025.67 1025.93 1026.00 1026.12 1026.28 1026.51 1026.80 1027.03 1027.09 1027.26 1027.55 1027.78
1018.39 1019.64 1020.21 1019.80 1019.94 1018.95 1019.11 1019.29 1019.42 1019.57 1019.92 1020.26 1020.27 1020.38 1020.58 1020.80 1021.17 1021.49 1021.81 1021.97 1022.01 1022.06 1022.00 1021.99 1022.24 1022.44 1022.60 1022.86 1023.17 1023.52 1023.76 1024.03 1024.37 1024.73 1025.03 1025.34 1025.61 1025.89 1026.10 1026.31 1026.47 1026.79 1027.14 1027.41 1027.60 1027.78 1028.00 1028.23 1028.44
1018.56 1019.70 1019.34 1018.86 1018.83 1018.61 1018.82 1019.01 1019.25 1019.70 1019.90 1020.11 1020.18 1020.36 1020.73 1021.08 1021.22 1021.28 1021.49 1021.73 1021.99 1022.14 1022.27 1022.16 1022.31 1022.43 1022.57 1022.77 1023.10 1023.25 1023.59 1023.92 1024.18 1024.60 1025.12 1025.43 1025.74 1026.03 1026.37 1026.76 1026.87 1027.28 1027.60 1027.88 1028.16 1028.49 1028.78 1028.90 1029.19
1018.66 1018.86 1018.68 1018.44 1018.42 1018.42 1018.65 1018.93 1019.03 1019.32 1019.78 1019.24 1019.42 1019.93 1020.70 1021.05 1021.21 1021.22 1021.24 1021.33 1021.57 1021.95 1022.32 1022.44 1022.47 1022.73 1022.59 1022.65 1022.85 1023.15 1023.43 1023.69 1023.98 1024.31 1024.78 1025.34 1025.74 1026.13 1026.51 1027.06 1027.29 1027.55 1027.97 1028.36 1028.70 1028.97 1029.25 1029.53 1029.73
1018.50 1018.48 1018.38 1018.24 1018.27 1018.47 1018.58 1018.67 1018.88 1019.10 1018.39 1018.49 1018.84 1019.34 1020.26 1020.78 1020.90 1020.82 1020.95 1021.24 1021.56 1021.89 1022.16 1022.41 1022.50 1022.70 1022.85 1022.89 1022.92 1022.91 1023.19 1023.44 1023.77 1024.22 1024.45 1025.06 1025.70 1026.12 1026.49 1026.99 1027.45 1027.77 1028.07 1028.54 1029.01 1029.41 1029.80 1030.05 1030.37
1018.35 1018.36 1018.29 1018.25 1018.24 1018.32 1018.46 1018.62 1018.69 1018.58 1018.24 1018.66 1018.99 1019.46 1019.84 1020.24 1020.52 1020.83 1021.04 1021.29 1021.56 1021.80 1022.03 1022.30 1022.45 1022.45 1022.85 1023.02 1023.01 1022.97 1022.86 1023.06 1023.45 1023.93 1024.24 1024.65 1025.23 1025.93 1026.47 1026.89 1027.40 1027.93 1028.19 1028.42 1029.15 1029.70 1030.14 1030.47 1030.82
1018.48 1018.49 1018.43 1018.36 1018.34 1018.34 1018.47 1018.60 1018.68 1017.96 1018.16 1018.74 1019.14 1019.33 1019.70 1019.98 1020.05 1020.73 1021.06 1021.06 1021.30 1021.56 1021.87 1022.13 1022.33 1022.47 1022.68 1022.78 1022.83 1022.83 1022.90 1023.00 1023.04 1023.51 1023.89 1024.29 1024.76 1025.48 1026.24 1026.92 1027.51 1027.93 1028.37 1028.49 1029.29 1029.87 1030.42 1030.93 1031.37
1018.79 1018.93 1018.67 1018.52 1018.54 1018.52 1018.57 1018.80 1018.14 1017.98 1018.29 1018.68 1019.02 1019.28 1019.60 1019.71 1020.06 1019.88 1020.07 1020.58 1020.92 1021.32 1021.67 1021.93 1022.13 1022.28 1022.49 1022.58 1022.58 1022.75 1022.83 1023.02 1023.05 1023.20 1023.64 1023.95 1024.51 1024.99 1025.77 1026.68 1027.54 1027.87 1028.41 1028.72 1029.47 1030.35 1030.89 1031.43 1031.96
1019.59 1019.60 1019.51 1018.85 1018.82 1018.81 1019.05 1018.71 1017.74 1018.08 1018.55 1018.54 1018.77 1019.10 1019.26 1019.24 1019.22 1019.66 1019.83 1020.17 1020.66 1021.10 1021.34 1021.57 1021.75 1021.90 1022.07 1022.24 1022.32 1022.49 1022.81 1022.99 1023.10 1023.28 1023.45 1023.82 1024.28 1024.84 1025.58 1026.23 1027.21 1027.83 1028.52 1028.80 1029.56 1030.57 1031.35 1032.09 1032.40
1020.70 1020.31 1020.19 1019.40 1019.13 1019.24 1019.38 1018.93 1017.96 1018.19 1018.62 1018.66 1018.68 1018.63 1018.82 1018.79 1018.83 1018.90 1019.07 1019.48 1019.91 1020.39 1020.84 1021.24 1021.39 1021.56 1021.80 1021.95 1022.29 1022.50 1022.82 1022.95 1023.15 1023.26 1023.49 1023.77 1024.19 1024.73 1025.41 1026.24 1027.08 1027.86 1028.38 1028.78 1029.53 1030.80 1031.32 1032.30 1033.06
1020.67 1020.76 1020.53 1020.16 1019.64 1019.70 1019.77 1018.98 1018.56 1018.20 1018.49 1018.37 1018.13 1018.08 1018.10 1017.97 1017.17 1017.45 1018.15 1018.67 1019.25 1019.77 1020.29 1020.78 1021.14 1021.31 1021.49 1021.89 1022.56 1022.78 1023.08 1023.23 1023.31 1023.39 1023.57 1023.81 1024.13 1024.65 1025.30 1026.23 1026.89 1027.91 1028.22 1028.95 1029.80 1030.57 1031.78 1032.14 1032.87
1020.44 1020.63 1020.59 1020.11 1019.75 1019.98 1019.55 1018.99 1018.30 1017.96 1017.99 1017.52 1017.24 1017.03 1016.72 1016.59 1015.60 1016.56 1017.14 1017.88 1018.70 1019.33 1019.81 1020.22 1020.72 1021.00 1021.37 1021.84 1022.42 1022.77 1023.04 1023.41 1023.63 1023.69 1023.71 1023.95 1024.10 1024.54 1025.15 1025.94 1026.81 1027.72 1027.71 1028.62 1029.60 1030.54 1031.43 1032.75 1033.05
1020.68 1020.91 1020.86 1020.19 1020.03 1020.35 1019.61 1019.03 1017.82 1017.53 1016.59 1015.62 1015.43 1015.40 1015.20 1015.16 1015.03 1015.66 1016.27 1017.15 1017.66 1018.21 1018.85 1019.43 1019.83 1020.38 1020.74 1021.07 1021.67 1022.17 1022.85 1023.42 1023.57 1023.97 1023.92 1024.24 1024.23 1024.50 1025.03 1025.95 1026.57 1027.45 1027.86 1028.72 1029.33 1029.88 1031.23 1032.27 1032.55
1020.96 1021.06 1020.87 1020.87 1020.46 1020.48 1020.26 1019.15 1017.54 1015.86 1015.25 1014.70 1014.27 1013.68 1013.91 1013.67 1013.85 1014.49 1015.41 1015.99 1016.98 1017.50 1017.84 1018.37 1018.93 1019.57 1020.23 1020.68 1021.33 1022.33 1023.10 1023.58 1023.93 1024.23 1024.29 1024.23 1024.41 1024.65 1025.05 1025.70 1026.36 1026.88 1027.15 1028.05 1028.70 1029.32 1029.81 1030.98 1032.36
1020.77 1020.25 1020.55 1021.09 1021.60 1021.47 1020.77 1019.32 1017.32 1015.68 1014.44 1014.08 1013.04 1012.83 1012.42 1012.52 1013.06 1013.44 1014.33 1015.31 1015.79 1016.00 1016.93 1017.64 1018.37 1018.95 1019.56 1020.15 1020.74 1021.32 1021.91 1022.48 1022.92 1023.58 1024.00 1024.38 1024.66 1024.82 1025.06 1025.71 1025.99 1026.38 1026.93 1027.72 1028.38 1029.06 1029.52 1030.01 1031.02
1020.06 1020.29 1020.96 1021.42 1021.97 1022.13 1021.19 1020.51 1015.85 1015.23 1014.27 1013.34 1011.91 1011.46 1011.46 1011.79 1012.32 1012.88 1013.55 1013.86 1014.47 1015.64 1016.14 1016.90 1017.69 1018.33 1018.89 1019.59 1020.07 1020.72 1021.53 1021.99 1022.66 1023.56 1024.23 1024.67 1025.07 1025.37 1025.37 1025.53 1025.97 1026.53 1027.03 1027.67 1028.28 1029.17 1029.45 1029.89 1030.45
1019.99 1020.63 1021.56 1022.36 1022.75 1022.38 1020.15 1020.02 1013.50 1014.58 1013.01 1012.15 1011.13 1010.66 1010.62 1011.57 1012.04 1012.55 1013.09 1013.60 1014.18 1014.96 1015.75 1016.37 1016.94 1017.47 1018.24 1018.89 1019.44 1019.94 1020.86 1021.80 1022.55 1023.41 1024.13 1024.70 1025.23 1025.70 1025.68 1025.70 1026.19 1026.58 1027.00 1027.55 1028.24 1028.94 1029.44 1029.73 1029.99
1019.58 1020.60 1022.04 1023.00 1023.24 1021.33 1019.92 1019.53 1012.87 1013.11 1011.99 1011.47 1011.04 1010.02 1010.57 1011.30 1011.93 1012.43 1012.96 1013.72 1014.20 1014.87 1015.37 1015.95 1016.47 1016.85 1017.38 1018.10 1018.82 1019.37 1020.23 1021.08 1021.62 1022.39 1023.30 1024.32 1024.96 1025.51 1025.74 1025.84 1026.40 1026.82 1027.24 1027.84 1028.45 1029.04 1029.56 1029.75 1029.94
1019.12 1019.22 1020.23 1021.28 1022.45 1021.53 1020.49 1017.77 1013.05 1011.66 1011.18 1011.01 1010.57 1010.55 1011.06 1011.60 1011.92 1012.32 1012.74 1013.32 1014.05 1014.78 1015.23 1015.60 1016.03 1016.50 1016.94 1017.54 1018.26 1018.95 1019.60 1020.35 1021.10 1021.71 1022.39 1023.14 1023.55 1023.99 1024.84 1025.37 1026.05 1026.74 1027.38 1028.02 1028.56 1029.10 1029.68 1029.86 1030.10
1018.49 1018.79 1018.25 1019.96 1022.06 1021.79 1018.47 1015.17 1012.33 1011.19 1010.75 1010.58 1010.15 1010.42 1011.11 1011.42 1011.86 1012.17 1012.51 1012.97 1013.54 1014.07 1014.49 1014.88 1015.48 1016.10 1016.70 1017.25 1018.01 1018.64 1019.24 1019.79 1020.42 1021.33 1022.07 1022.77 1023.34 1023.90 1024.68 1025.16 1025.90 1026.80 1027.38 1027.96 1028.59 1029.21 1029.62 1029.98 1030.58
1016.75 1017.37 1018.73 1019.79 1021.02 1020.67 1017.13 1015.14 1012.25 1011.05 1010.33 1009.71 1010.07 1010.04 1010.38 1010.83 1011.55 1011.89 1012.60 1012.95 1013.47 1013.95 1014.31 1014.78 1015.22 1015.58 1016.25 1016.99 1017.77 1018.39 1019.06 1019.69 1020.31 1021.06 1021.70 1022.49 1023.23 1024.05 1024.80 1025.36 1026.05 1026.86 1027.57 1028.18 1028.68 1029.40 1029.92 1030.15 1031.00
1017.36 1017.26 1018.05 1018.57 1019.06 1018.61 1017.13 1012.71 1010.33 1009.82 1009.60 1009.69 1009.58 1009.81 1010.02 1010.42 1010.77 1011.44 1012.29 1012.87 1013.37 1013.93 1014.27 1014.51 1014.83 1015.19 1015.90 1016.67 1017.44 1018.10 1018.85 1019.56 1020.22 1020.83 1021.50 1022.14 1022.91 1023.73 1024.48 1025.01 1025.89 1026.57 1027.34 1028.06 1028.64 1029.33 1029.89 1030.31 1031.04
1016.35 1015.95 1016.31 1017.29 1018.09 1017.92 1016.46 1010.52 1009.27 1009.29 1009.32 1009.36 1009.59 1009.80 1010.15 1010.42 1011.05 1011.82 1012.38 1012.86 1013.34 1013.49 1013.86 1014.10 1014.50 1014.89 1015.27 1015.91 1016.81 1017.55 1018.34 1019.18 1020.00 1020.69 1021.42 1022.05 1022.75 1023.63 1024.36 1024.96 1025.70 1026.47 1027.24 1028.00 1028.50 1029.17 1029.85 1030.37 1031.00
Thickness
5739 5738 5738 5730 5700 5683 5672 5680 5689 5688 5690 5693 5692 5690 5689 5687 5686 5678 5698 5699 5698 5696 5694 5693 5692 5690 5686 5683 5681 5680 5680 5681 5681 5681 5682 5683 5684 5684 5685 5687 5686 5687 5686 5685 5686 5687 5687 5687 5687
5740 5738 5733 5710 5684 5671 5675 5683 5688 5693 5695 5692 5693 5691 5690 5685 5693 5695 5698 5700 5699 5697 5696 5694 5693 5691 5688 5684 5683 5681 5679 5678 5677 5679 5679 5681 5679 5679 5681 5682 5681 5681 5681 5680 5680 5682 5681 5681 5679
5740 5739 5720 5692 5669 5674 5677 5688 5694 5694 5692 5695 5692 5693 5691 5689 5696 5699 5702 5702 5699 5697 5695 5693 5692 5690 5688 5685 5683 5682 5679 5678 5677 5676 5677 5678 5677 5677 5678 5677 5678 5677 5678 5677 5677 5677 5676 5675 5674
5733 5729 5706 5690 5686 5692 5696 5697 5696 5690 5695 5697 5696 5692 5693 5698 5699 5701 5703 5703 5700 5697 5695 5693 5692 5690 5687 5685 5683 5681 5680 5678 5677 5678 5676 5676 5674 5674 5672 5673 5675 5674 5672 5674 5671 5672 5671 5669 5669
5728 5713 5688 5682 5685 5693 5694 5701 5696 5694 5697 5696 5697 5692 5691 5698 5700 5702 5703 5702 5702 5698 5696 5694 5692 5690 5687 5685 5682 5681 5680 5678 5677 5677 5673 5672 5670 5669 5668 5671 5670 5667 5669 5668 5666 5667 5665 5663 5662
5714 5704 5681 5678 5685 5697 5702 5701 5701 5700 5698 5695 5695 5691 5693 5699 5700 5700 5701 5701 5700 5698 5696 5694 5692 5690 5688 5685 5682 5681 5679 5677 5676 5674 5671 5668 5668 5669 5667 5667 5667 5664 5665 5663 5663 5662 5660 5660 5657
5708 5693 5683 5682 5687 5696 5703 5700 5700 5700 5697 5699 5700 5692 5697 5699 5700 5699 5699 5698 5698 5696 5695 5693 5691 5689 5687 5685 5682 5681 5678 5676 5674 5670 5668 5666 5667 5666 5663 5662 5662 5662 5660 5659 5658 5655 5656 5654 5652
5703 5691 5680 5681 5683 5696 5705 5702 5709 5705 5702 5700 5701 5698 5699 5703 5700 5698 5696 5695 5694 5694 5693 5692 5690 5689 5687 5684 5682 5680 5678 5675 5672 5670 5668 5666 5664 5661 5660 5660 5658 5657 5655 5653 5651 5652 5651 5648 5647
5707 5682 5675 5688 5682 5703 5699 5704 5703 5705 5700 5699 5701 5702 5702 5701 5699 5696 5693 5692 5691 5691 5692 5691 5689 5687 5685 5683 5680 5678 5676 5673 5670 5668 5665 5662 5659 5658 5657 5657 5655 5651 5649 5647 5646 5645 5644 5642 5640
5696 5679 5687 5697 5697 5705 5703 5707 5702 5701 5699 5699 5701 5701 5699 5698 5698 5698 5696 5694 5691 5689 5689 5689 5687 5686 5684 5682 5680 5678 5675 5672 5670 5667 5662 5659 5657 5654 5652 5651 5650 5647 5645 5642 5641 5639 5637 5636 5633
5689 5687 5695 5702 5704 5707 5705 5705 5703 5700 5696 5706 5708 5705 5698 5696 5696 5697 5697 5696 5694 5690 5687 5686 5685 5683 5683 5681 5679 5676 5674 5671 5669 5667 5663 5659 5655 5652 5649 5645 5644 5643 5641 5638 5635 5632 5630 5628 5625
5693 5694 5696 5704 5706 5703 5700 5702 5703 5699 5713 5714 5711 5709 5700 5698 5698 5699 5698 5695 5691 5689 5687 5684 5683 5681 5679 5678 5677 5676 5673 5671 5669 5665 5664 5659 5653 5650 5647 5643 5639 5637 5634 5631 5628 5625 5622 5620 5617
5690 5692 5698 5700 5702 5703 5702 5702 5702 5701 5710 5709 5707 5704 5703 5702 5700 5695 5694 5691 5689 5687 5685 5683 5681 5681 5677 5675 5674 5673 5673 5671 5668 5664 5662 5658 5653 5648 5644 5640 5636 5632 5630 5627 5621 5617 5613 5611 5609
5688 5690 5692 5695 5698 5700 5700 5701 5702 5710 5707 5706 5704 5704 5702 5701 5702 5693 5690 5691 5688 5686 5683 5680 5679 5678 5675 5674 5672 5671 5670 5669 5669 5665 5661 5658 5654 5648 5642 5636 5632 5629 5625 5623 5617 5611 5607 5603 5600
5682 5683 5685 5689 5691 5695 5697 5693 5695 5707 5705 5704 5703 5701 5699 5700 5696 5699 5697 5691 5687 5684 5681 5678 5676 5675 5674 5672 5671 5669 5667 5666 5665 5664 5659 5657 5652 5648 5642 5634 5628 5625 5620 5618 5612 5604 5600 5595 5591
5668 5665 5668 5682 5683 5689 5690 5679 5701 5699 5698 5703 5702 5699 5697 5699 5700 5695 5692 5689 5684 5681 5679 5677 5675 5674 5672 5670 5669 5667 5665 5662 5661 5659 5657 5653 5649 5644 5638 5633 5625 5620 5614 5613 5606 5598 5591 5586 5581
5647 5654 5655 5667 5674 5679 5678 5681 5695 5693 5691 5696 5697 5698 5697 5697 5696 5693 5692 5689 5685 5681 5677 5674 5672 5671 5669 5667 5665 5663 5661 5659 5657 5656 5653 5649 5645 5640 5634 5628 5621 5614 5610 5607 5600 5590 5586 5578 5571
5644 5647 5649 5656 5671 5667 5668 5675 5684 5689 5690 5695 5697 5696 5697 5698 5705 5703 5694 5688 5684 5680 5675 5671 5668 5667 5665 5662 5659 5657 5655 5654 5652 5650 5648 5645 5641 5636 5630 5622 5617 5608 5606 5600 5592 5586 5575 5571 5565
5643 5649 5652 5655 5662 5662 5662 5668 5683 5685 5687 5691 5696 5700 5703 5703 5715 5703 5696 5690 5682 5676 5673 5669 5665 5662 5661 5658 5654 5652 5650 5646 5644 5643 5642 5639 5636 5631 5625 5618 5612 5603 5603 5595 5587 5578 5571 5559 5556
5640 5640 5641 5648 5652 5649 5657 5664 5685 5684 5697 5707 5711 5711 5710 5711 5708 5701 5695 5689 5685 5681 5674 5669 5666 5661 5659 5657 5653 5649 5644 5639 5638 5635 5635 5631 5629 5625 5621 5613 5607 5600 5595 5587 5580 5575 5564 5555 5552
5629 5629 5633 5639 5644 5641 5641 5647 5669 5693 5699 5706 5708 5716 5713 5717 5717 5708 5692 5690 5684 5678 5674 5670 5666 5661 5657 5654 5647 5641 5635 5630 5628 5624 5622 5623 5620 5618 5614 5608 5602 5596 5592 5584 5577 5571 5567 5557 5545
5623 5630 5631 5631 5628 5623 5637 5622 5664 5687 5702 5701 5711 5712 5718 5719 5713 5709 5696 5687 5683 5684 5675 5670 5664 5660 5655 5650 5645 5641 5639 5633 5627 5621 5617 5613 5611 5608 5606 5600 5596 5591 5585 5578 5571 5564 5560 5555 5547
5624 5620 5619 5620 5613 5611 5620 5617 5660 5681 5690 5703 5720 5720 5719 5715 5711 5706 5696 5692 5687 5677 5673 5667 5661 5657 5653 5646 5642 5636 5630 5626 5619 5611 5605 5601 5598 5595 5594 5592 5587 5581 5576 5569 5563 5555 5551 5546 5541
5612 5610 5601 5587 5593 5596 5622 5624 5688 5669 5691 5706 5715 5720 5719 5710 5702 5694 5688 5682 5679 5672 5667 5663 5658 5655 5649 5642 5638 5633 5626 5616 5608 5601 5596 5591 5587 5584 5583 5582 5576 5572 5567 5561 5554 5547 5542 5537 5534
5612 5604 5586 5580 5565 5605 5602 5611 5689 5680 5685 5699 5710 5722 5713 5704 5696 5688 5681 5674 5669 5664 5661 5657 5654 5651 5646 5639 5632 5628 5619 5611 5607 5600 5593 5584 5578 5574 5572 5570 5564 5560 5556 5550 5544 5537 5531 5527 5524
5594 5604 5586 5570 5568 5596 5587 5604 5657 5679 5689 5687 5694 5694 5693 5694 5688 5683 5675 5669 5662 5656 5653 5651 5648 5643 5639 5633 5627 5621 5614 5607 5602 5596 5590 5583 5580 5575 5568 5563 5557 5551 5545 5539 5532 5526 5520 5516 5511
5591 5589 5614 5591 5494 5549 5605 5633 5661 5667 5676 5682 5687 5684 5675 5678 5679 5674 5669 5662 5657 5653 5650 5648 5643 5637 5630 5625 5619 5612 5607 5602 5597 5588 5581 5575 5569 5563 5558 5554 5547 5540 5534 5527 5520 5514 5508 5503 5496
5597 5596 5576 5557 5558 5537 5603 5614 5649 5670 5675 5682 5679 5682 5678 5671 5668 5664 5658 5653 5648 5644 5642 5638 5635 5632 5622 5617 5610 5604 5598 5592 5587 5580 5574 5566 5559 5552 5546 5541 5534 5527 5520 5514 5507 5500 5494 5489 5480
5576 5578 5575 5572 5561 5558 5556 5627 5650 5663 5668 5666 5669 5671 5671 5666 5666 5659 5649 5642 5639 5634 5631 5629 5626 5621 5615 5608 5601 5595 5588 5582 5576 5570 5564 5558 5551 5544 5537 5533 5524 5518 5511 5503 5495 5488 5481 5474 5466
5570 5582 5576 5563 5549 5534 5551 5635 5653 5657 5655 5654 5653 5658 5658 5656 5652 5643 5637 5632 5627 5626 5624 5622 5619 5614 5609 5603 5595 5588 5581 5573 5566 5559 5552 5546 5541 5533 5527 5521 5514 5506 5498 5490 5482 5474 5466 5459 5451